This is the latest recevied weather packets stored in our database for station/object G4MDP-13. If no packets are shown the sender has not sent any weather packets the latest 10 day(s).
| Time | Temp. | Humidity | Pressure | Rain* | Wind** | Luminosity | Snow |
|---|---|---|---|---|---|---|---|
| 1778082557 | 14.44° C | 52% | 1006.4 hPa | 0 mm | - | - | - |
| 1778081717 | 14.44° C | 46% | 1006.3 hPa | 0 mm | - | - | - |
| 1778081657 | 14.44° C | 46% | 1006.3 hPa | 0 mm | - | - | - |
| 1778080757 | 14.44° C | 48% | 1006.4 hPa | 0 mm | - | - | - |
| 1778079917 | 15.56° C | 44% | 1006.1 hPa | 0 mm | - | - | - |
| 1778079857 | 15.56° C | 44% | 1006.1 hPa | 0 mm | - | - | - |
| 1778078957 | 14.44° C | 44% | 1006.3 hPa | 0 mm | - | - | - |
| 1778078117 | 15.56° C | 44% | 1006.3 hPa | 0 mm | - | - | - |
| 1778078057 | 15.56° C | 44% | 1006.3 hPa | 0 mm | - | - | - |
| 1778077157 | 15° C | 44% | 1006.1 hPa | 0 mm | - | - | - |
| 1778076317 | 15° C | 44% | 1006.3 hPa | 0 mm | - | - | - |
| 1778076257 | 15.56° C | 44% | 1006.3 hPa | 0 mm | - | - | - |
| 1778075357 | 14.44° C | 45% | 1006.3 hPa | 0 mm | - | - | - |
| 1778074517 | 15.56° C | 43% | 1006.3 hPa | 0 mm | - | - | - |
| 1778074457 | 15.56° C | 43% | 1006.3 hPa | 0 mm | - | - | - |
| 1778073557 | 16.11° C | 42% | 1006.5 hPa | 0 mm | - | - | - |
| 1778072717 | 16.11° C | 42% | 1006.3 hPa | 0 mm | - | - | - |
| 1778072657 | 16.11° C | 42% | 1006.3 hPa | 0 mm | - | - | - |
| 1778071757 | 16.11° C | 43% | 1006.2 hPa | 0 mm | - | - | - |
| 1778070917 | 14.44° C | 45% | 1006.5 hPa | 0 mm | - | - | - |
| 1778070857 | 13.89° C | 45% | 1006.5 hPa | 0 mm | - | - | - |
| 1778069957 | 15° C | 45% | 1006.3 hPa | 0 mm | - | - | - |
| 1778069117 | 14.44° C | 44% | 1006.4 hPa | 0 mm | - | - | - |
| 1778069057 | 14.44° C | 45% | 1006.5 hPa | 0 mm | - | - | - |
| 1778068157 | 14.44° C | 47% | 1006.2 hPa | 0 mm | - | - | - |
* Rain latest hour (hover to see other rain measurements)
** Current wind speed in m/s (hover to see current wind gust speed)